Temp
-13 -13 -13 -13 -13 -13 -13 -13 -13 -13 -13 -13 -14 -14 -14 -14 -14 -14 -14 -14 -14 -14 -14 -14 -14 -14 -14 -14 -14 -14 -14 -14 -14 -14 -14 -14 -14 -14 -14 -14 -14 -14
-13 -13 -13 -13 -13 -13 -13 -13 -13 -13 -13 -13 -14 -14 -14 -14 -14 -14 -14 -14 -14 -14 -14 -14 -14 -14 -14 -14 -14 -14 -14 -14 -14 -14 -14 -14 -14 -14 -14 -14 -14 -14
-13 -13 -13 -14 -14 -14 -14 -13 -13 -13 -13 -13 -14 -14 -14 -14 -14 -14 -14 -14 -14 -14 -14 -15 -15 -14 -14 -14 -14 -14 -14 -14 -14 -14 -14 -14 -14 -14 -14 -14 -14 -14
-13 -14 -14 -14 -14 -14 -14 -14 -13 -13 -13 -14 -14 -14 -14 -14 -14 -14 -14 -14 -14 -15 -15 -15 -15 -15 -15 -14 -14 -14 -14 -14 -14 -14 -14 -14 -14 -14 -14 -14 -14 -14
-13 -14 -14 -14 -14 -14 -14 -14 -14 -14 -14 -14 -14 -14 -14 -15 -15 -14 -14 -14 -14 -15 -15 -15 -15 -15 -15 -14 -14 -14 -14 -14 -14 -14 -14 -14 -14 -14 -14 -14 -14 -14
-14 -14 -14 -14 -13 -13 -14 -14 -14 -14 -14 -14 -14 -14 -15 -15 -14 -14 -14 -14 -14 -15 -15 -15 -15 -15 -15 -14 -14 -14 -14 -14 -14 -14 -14 -14 -14 -14 -14 -14 -14 -14
-13 -13 -13 -14 -13 -13 -13 -14 -14 -14 -14 -14 -14 -14 -14 -14 -14 -14 -14 -14 -15 -15 -15 -15 -15 -15 -15 -15 -15 -14 -14 -14 -15 -15 -14 -14 -14 -14 -14 -14 -14 -14
-13 -13 -13 -14 -13 -13 -13 -13 -14 -14 -14 -14 -15 -14 -14 -14 -14 -14 -14 -14 -15 -15 -15 -15 -15 -15 -15 -15 -15 -15 -15 -15 -15 -15 -15 -15 -14 -14 -14 -14 -14 -14
-14 -14 -13 -13 -13 -13 -13 -13 -14 -14 -14 -14 -15 -15 -14 -14 -14 -14 -14 -15 -15 -15 -15 -15 -15 -15 -15 -15 -15 -15 -15 -15 -15 -15 -15 -15 -15 -15 -15 -14 -14 -14
-14 -14 -14 -13 -13 -13 -13 -13 -14 -14 -14 -14 -15 -15 -14 -14 -15 -15 -15 -15 -15 -15 -15 -15 -15 -15 -15 -15 -15 -15 -15 -15 -15 -15 -15 -15 -15 -15 -15 -15 -14 -14
-14 -14 -14 -13 -13 -13 -13 -13 -14 -14 -14 -14 -15 -15 -15 -15 -15 -15 -15 -15 -15 -15 -15 -15 -15 -15 -15 -15 -15 -15 -15 -15 -15 -15 -15 -15 -15 -15 -15 -15 -15 -15
-15 -14 -14 -13 -14 -14 -13 -13 -14 -14 -14 -15 -14 -15 -15 -15 -15 -15 -15 -15 -15 -15 -15 -15 -15 -15 -15 -15 -15 -15 -15 -15 -15 -15 -15 -15 -15 -15 -15 -15 -15 -15
-15 -14 -14 -14 -14 -14 -14 -14 -14 -14 -14 -14 -14 -14 -15 -15 -15 -15 -15 -15 -15 -15 -15 -15 -15 -15 -15 -15 -15 -15 -15 -15 -15 -15 -15 -15 -15 -15 -15 -15 -15 -15
-14 -14 -14 -14 -14 -14 -14 -14 -14 -14 -14 -14 -14 -14 -14 -15 -15 -15 -15 -15 -15 -15 -15 -15 -15 -15 -15 -15 -15 -15 -15 -15 -15 -15 -15 -15 -15 -15 -15 -15 -15 -15
-14 -14 -14 -14 -14 -14 -14 -14 -14 -14 -14 -14 -14 -14 -14 -15 -15 -15 -15 -15 -15 -15 -15 -15 -16 -16 -16 -16 -15 -15 -15 -15 -15 -15 -15 -15 -16 -16 -16 -16 -15 -15
-14 -14 -14 -14 -14 -14 -14 -14 -14 -14 -14 -14 -14 -14 -14 -15 -15 -15 -15 -16 -15 -15 -15 -15 -16 -16 -16 -16 -16 -15 -15 -15 -15 -15 -16 -16 -16 -16 -16 -16 -16 -15
-14 -14 -14 -14 -14 -14 -14 -15 -15 -14 -14 -14 -14 -14 -14 -15 -15 -15 -15 -15 -15 -15 -15 -15 -16 -16 -16 -16 -16 -16 -16 -16 -16 -16 -16 -16 -16 -16 -16 -16 -16 -16
-14 -14 -14 -14 -14 -14 -14 -15 -15 -15 -14 -14 -14 -14 -15 -15 -15 -15 -15 -15 -15 -15 -15 -15 -16 -16 -16 -16 -16 -16 -16 -16 -16 -16 -16 -16 -16 -16 -16 -16 -16 -16
-14 -14 -14 -14 -14 -14 -14 -15 -15 -15 -14 -14 -14 -14 -15 -15 -15 -15 -15 -15 -15 -15 -15 -16 -16 -16 -16 -16 -16 -16 -16 -16 -16 -16 -16 -16 -16 -16 -16 -16 -16 -16
-14 -14 -14 -14 -14 -14 -15 -15 -15 -15 -15 -15 -15 -15 -15 -15 -15 -15 -15 -15 -15 -15 -15 -16 -16 -16 -16 -16 -16 -16 -16 -16 -16 -16 -16 -16 -16 -16 -16 -16 -16 -16
-14 -14 -15 -15 -15 -15 -15 -15 -15 -15 -15 -15 -15 -15 -15 -15 -15 -15 -15 -15 -16 -16 -16 -16 -16 -16 -16 -16 -16 -16 -16 -16 -16 -16 -16 -16 -16 -16 -16 -16 -16 -16
-14 -15 -15 -15 -15 -15 -15 -15 -15 -15 -15 -15 -15 -15 -15 -15 -15 -15 -15 -15 -16 -16 -16 -16 -16 -16 -16 -16 -16 -16 -16 -16 -16 -16 -16 -16 -16 -16 -16 -16 -16 -16
-15 -15 -15 -15 -15 -15 -15 -15 -15 -15 -15 -15 -15 -15 -15 -16 -16 -15 -15 -15 -16 -16 -16 -16 -16 -16 -16 -16 -16 -16 -16 -16 -16 -16 -16 -16 -16 -16 -16 -16 -16 -16
-15 -15 -15 -15 -15 -15 -15 -15 -15 -15 -15 -15 -15 -15 -15 -16 -15 -15 -15 -16 -16 -16 -16 -16 -16 -16 -16 -16 -16 -16 -16 -16 -16 -16 -16 -16 -16 -16 -16 -16 -16 -16
-15 -15 -15 -15 -15 -15 -15 -15 -15 -15 -15 -15 -15 -15 -15 -15 -15 -15 -16 -16 -16 -16 -16 -16 -16 -16 -16 -16 -16 -16 -16 -16 -16 -16 -16 -16 -16 -16 -16 -16 -16 -16
-15 -15 -15 -15 -15 -15 -15 -15 -15 -15 -15 -15 -15 -15 -15 -15 -15 -15 -16 -16 -16 -16 -16 -16 -16 -16 -16 -16 -16 -16 -16 -16 -16 -16 -16 -16 -16 -16 -16 -16 -17 -17
Height
5771 5771 5772 5773 5774 5775 5777 5778 5780 5781 5782 5783 5784 5786 5787 5788 5789 5790 5791 5792 5793 5793 5794 5795 5796 5797 5798 5798 5799 5799 5800 5801 5801 5802 5802 5803 5803 5803 5803 5803 5803 5803
5769 5769 5770 5771 5772 5774 5775 5776 5778 5779 5780 5781 5782 5784 5785 5786 5787 5788 5788 5789 5790 5790 5791 5792 5793 5794 5795 5796 5796 5797 5798 5798 5799 5800 5800 5800 5801 5801 5802 5802 5802 5802
5766 5767 5768 5769 5771 5772 5774 5775 5776 5777 5778 5779 5780 5781 5782 5783 5784 5785 5786 5786 5787 5788 5788 5789 5791 5792 5793 5794 5794 5795 5795 5796 5797 5797 5798 5798 5799 5799 5799 5800 5800 5800
5763 5764 5766 5767 5769 5770 5772 5773 5773 5774 5775 5777 5778 5779 5779 5780 5781 5782 5783 5783 5784 5785 5786 5787 5788 5789 5790 5791 5792 5793 5794 5794 5795 5795 5795 5796 5797 5797 5797 5797 5797 5797
5761 5762 5763 5765 5766 5767 5769 5770 5771 5772 5773 5774 5775 5776 5777 5777 5778 5779 5779 5780 5781 5782 5783 5784 5785 5787 5787 5789 5789 5790 5792 5793 5793 5793 5793 5794 5794 5795 5795 5795 5795 5795
5760 5760 5761 5762 5763 5764 5765 5767 5769 5770 5771 5772 5773 5774 5774 5775 5775 5776 5777 5778 5779 5779 5780 5781 5783 5784 5785 5786 5787 5788 5789 5790 5791 5791 5791 5792 5792 5792 5793 5793 5794 5794
5758 5759 5759 5760 5761 5761 5762 5763 5766 5767 5768 5769 5770 5771 5772 5773 5773 5774 5774 5775 5776 5777 5778 5779 5780 5781 5782 5783 5784 5785 5787 5788 5788 5789 5789 5789 5790 5790 5791 5792 5792 5792
5754 5756 5757 5758 5759 5760 5760 5761 5763 5764 5766 5767 5768 5769 5770 5770 5771 5771 5772 5773 5774 5775 5776 5777 5778 5779 5780 5781 5782 5783 5784 5785 5786 5787 5787 5787 5788 5789 5789 5790 5791 5791
5751 5752 5754 5756 5757 5758 5759 5759 5760 5761 5763 5765 5766 5767 5767 5768 5768 5769 5769 5770 5771 5773 5774 5774 5775 5776 5777 5778 5779 5780 5781 5782 5784 5784 5784 5786 5786 5787 5787 5788 5789 5789
5748 5749 5750 5753 5754 5756 5756 5756 5757 5758 5760 5761 5763 5764 5764 5765 5765 5766 5767 5768 5769 5770 5771 5772 5773 5774 5775 5776 5777 5778 5779 5780 5781 5781 5782 5784 5784 5784 5785 5786 5787 5787
5745 5746 5748 5749 5751 5752 5752 5753 5753 5755 5757 5758 5759 5760 5761 5761 5762 5763 5764 5765 5766 5767 5768 5769 5770 5771 5772 5773 5774 5775 5776 5777 5778 5779 5780 5781 5781 5782 5783 5784 5784 5784
5742 5744 5745 5745 5746 5748 5749 5749 5750 5751 5753 5754 5755 5757 5758 5758 5759 5760 5761 5762 5763 5764 5766 5767 5767 5768 5769 5770 5771 5772 5773 5774 5775 5776 5777 5777 5779 5779 5780 5780 5780 5781
5739 5741 5742 5742 5742 5744 5745 5745 5747 5748 5749 5750 5752 5753 5754 5755 5757 5758 5759 5760 5762 5762 5763 5764 5765 5765 5766 5767 5769 5770 5771 5771 5772 5773 5774 5774 5776 5777 5777 5777 5777 5778
5735 5737 5738 5738 5739 5740 5742 5742 5743 5744 5745 5747 5749 5750 5751 5752 5754 5755 5756 5758 5760 5760 5760 5761 5762 5763 5764 5765 5766 5767 5768 5769 5769 5771 5771 5771 5773 5774 5774 5774 5775 5775
5730 5732 5733 5734 5736 5737 5739 5739 5740 5741 5742 5744 5745 5747 5748 5749 5750 5752 5754 5756 5758 5758 5757 5759 5760 5761 5762 5763 5763 5764 5765 5766 5767 5768 5768 5769 5770 5771 5771 5772 5772 5772
5727 5728 5729 5730 5733 5734 5735 5735 5736 5738 5739 5741 5742 5743 5744 5746 5747 5750 5753 5754 5755 5754 5755 5756 5757 5758 5759 5760 5761 5761 5762 5763 5764 5765 5765 5766 5767 5768 5769 5769 5769 5770
5722 5724 5726 5727 5728 5730 5731 5731 5732 5735 5736 5737 5738 5739 5741 5743 5745 5748 5750 5750 5751 5751 5752 5754 5755 5756 5757 5758 5758 5758 5759 5760 5761 5762 5762 5763 5764 5765 5766 5766 5766 5766
5718 5719 5721 5723 5724 5726 5728 5729 5730 5732 5733 5734 5734 5735 5738 5741 5743 5745 5746 5746 5747 5748 5750 5751 5752 5753 5754 5755 5755 5756 5756 5757 5758 5759 5759 5760 5761 5762 5762 5762 5763 5763
5714 5715 5717 5719 5721 5723 5725 5726 5727 5728 5730 5730 5731 5732 5735 5738 5739 5741 5742 5743 5744 5746 5747 5748 5749 5750 5751 5752 5752 5753 5754 5754 5755 5755 5756 5757 5758 5759 5759 5759 5759 5760
5710 5712 5715 5717 5718 5720 5722 5723 5724 5725 5726 5727 5728 5730 5732 5734 5736 5737 5739 5740 5741 5742 5743 5744 5746 5747 5747 5748 5749 5750 5751 5751 5751 5752 5753 5753 5754 5755 5756 5756 5756 5757
5708 5710 5712 5714 5716 5717 5718 5719 5721 5722 5723 5723 5725 5727 5729 5731 5733 5734 5735 5737 5738 5739 5740 5741 5742 5743 5744 5745 5746 5747 5747 5748 5748 5749 5750 5750 5750 5751 5753 5754 5753 5753
5706 5708 5709 5711 5713 5715 5715 5717 5718 5719 5719 5720 5722 5724 5726 5728 5729 5731 5732 5733 5734 5735 5737 5738 5739 5740 5741 5742 5742 5743 5744 5744 5745 5745 5746 5746 5747 5747 5748 5749 5750 5750
5704 5705 5707 5708 5710 5711 5712 5713 5714 5716 5717 5717 5719 5720 5722 5724 5726 5727 5729 5730 5731 5733 5734 5735 5736 5737 5738 5738 5739 5740 5740 5740 5741 5742 5743 5743 5743 5743 5744 5745 5746 5746
5702 5703 5704 5705 5706 5708 5709 5710 5712 5713 5714 5715 5716 5718 5719 5721 5723 5724 5725 5727 5729 5730 5731 5732 5733 5734 5734 5735 5735 5736 5736 5736 5737 5738 5739 5739 5738 5739 5740 5741 5742 5743
5699 5700 5701 5701 5703 5704 5706 5707 5709 5710 5711 5712 5713 5714 5716 5718 5719 5721 5722 5724 5726 5727 5727 5728 5729 5730 5730 5731 5732 5732 5732 5732 5733 5734 5735 5735 5735 5736 5737 5737 5738 5739
5695 5697 5698 5698 5699 5700 5702 5704 5705 5707 5708 5709 5710 5711 5712 5715 5716 5718 5719 5721 5722 5723 5723 5724 5725 5726 5726 5727 5727 5728 5728 5729 5729 5730 5731 5732 5733 5733 5734 5734 5734 5734
Wind_Speed
12 13 15 18 19 18 18 20 19 18 17 16 14 14 15 15 16 16 17 17 17 17 17 16 16 16 16 15 15 14 14 13 12 11 12 12 11 10 10 10 10 11
12 11 13 16 18 19 19 21 21 20 19 18 15 15 16 16 17 18 18 18 18 18 18 18 18 18 17 17 16 16 15 15 14 13 13 13 11 10 10 10 11 12
13 10 10 13 16 18 20 22 21 21 22 19 16 17 18 18 18 18 19 20 20 20 20 19 19 19 19 18 18 18 18 17 16 15 15 13 11 10 10 10 11 12
17 12 10 11 14 17 19 21 20 21 21 17 15 17 19 19 19 19 19 20 20 20 21 21 20 20 20 20 19 19 19 18 17 16 16 14 12 11 11 11 11 12
20 17 12 11 13 16 18 19 19 20 18 15 15 17 18 19 19 19 19 19 20 20 21 21 21 21 21 21 21 21 20 19 17 17 17 15 13 13 12 12 12 12
19 19 16 14 13 15 17 16 19 21 16 12 14 16 17 19 19 19 19 19 19 20 21 21 21 22 22 22 22 22 21 19 18 18 17 16 15 14 13 13 13 12
18 18 18 16 15 16 18 17 20 23 19 14 14 16 17 18 19 19 19 19 20 20 21 21 22 22 23 23 23 22 21 20 19 18 18 18 17 15 14 14 13 12
17 18 18 17 16 17 19 19 21 23 22 18 17 18 19 20 20 20 20 20 20 20 21 22 23 23 23 23 23 22 22 21 19 19 19 19 17 16 15 15 14 13
15 17 18 18 17 18 19 20 22 23 23 22 20 20 21 21 21 21 20 20 20 20 21 22 23 23 23 23 22 22 22 21 20 20 20 19 17 16 16 16 15 14
15 16 17 18 19 19 19 21 23 24 23 21 22 22 21 21 21 21 20 20 19 20 21 22 23 23 23 23 22 22 22 21 20 22 21 19 18 18 17 16 16 17
18 17 17 18 20 20 20 20 22 23 21 20 23 24 22 21 21 20 19 19 20 21 21 22 22 22 22 23 22 22 21 21 21 22 22 20 19 19 18 17 17 19
20 18 18 19 20 19 19 19 20 22 22 22 23 24 23 22 21 19 20 21 21 22 22 22 22 22 22 22 22 21 21 21 23 23 22 22 20 19 19 19 19 20
21 20 20 21 22 21 20 20 19 20 21 22 22 24 25 23 21 21 23 24 23 22 22 23 23 23 23 22 21 21 21 22 23 23 23 22 21 19 20 21 21 21
24 22 22 24 25 24 23 22 21 20 20 21 21 23 25 24 24 25 26 25 23 23 24 24 24 23 22 21 21 22 23 24 24 23 23 23 21 20 21 21 22 22
26 23 24 26 26 25 25 23 21 20 20 19 19 22 25 27 27 28 27 25 23 24 25 25 24 23 22 22 22 23 24 24 24 23 23 22 20 19 20 20 21 22
26 24 25 27 27 26 25 23 20 20 19 19 19 22 26 29 29 27 26 25 24 25 26 25 24 24 22 21 22 22 23 23 22 22 21 21 19 18 18 19 20 22
27 27 26 28 29 28 27 24 23 21 20 20 21 23 26 29 28 26 26 26 26 25 24 24 25 24 22 21 21 21 21 21 20 20 20 20 19 18 18 19 20 21
27 27 27 29 30 29 28 25 24 21 20 21 21 23 25 27 27 28 29 29 27 24 23 24 25 25 23 22 22 21 21 21 21 20 20 20 19 19 20 21 21 22
25 26 29 30 29 29 28 26 24 21 20 20 20 21 23 26 28 29 30 29 26 23 23 24 25 25 25 24 24 23 23 23 23 23 23 22 22 22 23 24 24 24
24 25 27 28 27 28 27 26 24 22 21 22 22 21 23 25 27 28 28 26 24 23 24 25 26 26 26 26 26 26 26 26 27 26 25 25 26 26 25 25 26 25
22 23 24 24 24 27 27 24 23 23 23 24 25 24 24 25 24 24 25 24 23 24 25 25 26 26 27 27 27 27 27 28 28 28 27 28 28 27 25 25 26 25
21 22 23 23 24 26 28 25 22 22 23 24 26 26 24 23 23 23 24 24 25 25 26 25 25 25 26 26 26 27 27 28 28 28 28 28 29 29 28 27 27 26
21 22 22 23 25 28 27 24 22 23 24 24 26 27 24 22 22 23 24 25 25 26 26 26 25 25 25 26 26 26 27 28 28 28 28 29 31 32 31 29 27 26
23 24 25 25 27 28 27 25 24 25 25 26 27 26 24 23 23 23 24 24 25 26 27 28 28 28 27 28 28 28 29 29 30 30 30 31 32 31 29 28 26 26
29 27 28 28 28 28 27 26 25 25 27 29 29 27 25 23 23 23 24 25 25 27 29 30 31 31 30 30 31 31 30 30 30 30 29 29 29 28 26 26 25 25
30 29 28 28 28 28 26 26 26 26 28 32 34 32 28 24 24 25 26 27 28 29 30 31 31 32 31 32 31 30 28 27 26 26 27 27 27 27 26 26 26 26
Wind_Direction
268 268 254 244 242 240 236 233 229 225 226 228 222 213 214 220 222 225 229 230 231 235 237 239 242 246 247 248 248 248 247 247 246 246 245 243 245 251 257 263 268 269
262 268 256 245 240 238 232 230 232 233 230 226 220 222 229 230 228 229 230 232 235 238 241 243 245 248 250 250 251 250 249 249 249 247 243 242 242 248 256 262 266 268
251 262 263 250 238 236 231 227 231 233 227 222 224 235 240 237 234 234 233 233 235 238 241 243 244 247 249 249 250 250 250 250 251 247 242 240 238 241 250 256 260 264
239 257 277 262 238 231 229 230 231 224 216 216 226 235 237 234 233 233 233 234 235 238 240 242 243 245 247 248 249 249 250 251 250 245 241 239 234 236 244 250 256 259
233 246 268 274 251 231 226 232 225 208 204 214 223 227 227 227 228 229 230 232 234 237 239 241 242 243 245 247 248 249 249 250 247 243 240 237 233 234 239 246 252 254
238 241 254 272 269 241 227 226 212 200 204 219 225 226 226 225 227 228 229 231 234 237 239 240 240 241 243 244 246 248 248 247 244 240 237 234 232 232 235 241 246 249
245 240 244 262 273 252 232 223 213 211 221 233 233 235 233 230 231 232 232 234 237 239 238 238 238 239 241 243 246 248 247 245 241 236 234 232 232 233 234 238 241 244
244 236 237 250 263 255 236 224 218 220 229 235 235 237 236 235 235 234 235 237 239 240 238 238 238 239 242 244 246 247 246 244 240 236 233 232 234 235 236 237 240 241
245 236 234 239 250 252 238 223 216 218 224 229 231 233 234 235 234 234 236 238 239 239 239 239 240 242 243 245 247 247 246 245 241 237 235 234 234 237 238 238 240 241
252 243 237 237 242 246 238 223 214 215 221 226 229 230 233 234 233 233 235 238 241 240 240 241 243 244 245 246 247 247 246 245 241 239 239 235 233 236 238 239 240 241
262 253 247 244 241 240 237 228 219 220 227 235 232 229 232 234 231 231 236 241 244 243 241 243 245 246 246 246 246 245 244 243 240 239 240 236 234 236 238 238 239 241
269 259 253 248 238 230 234 235 228 224 229 236 235 228 229 232 227 229 239 244 247 248 245 243 243 243 243 243 243 241 239 238 237 237 238 238 236 237 239 239 241 243
270 257 250 247 234 225 234 239 233 228 228 233 235 229 227 228 224 227 237 243 248 250 246 242 240 238 239 240 239 238 237 236 236 237 238 240 239 238 240 243 244 246
265 257 252 246 232 225 234 238 233 231 232 233 235 233 229 226 223 226 235 240 245 248 246 242 239 238 238 239 239 239 238 238 239 239 241 243 242 240 242 246 248 249
260 258 252 239 229 226 230 232 233 234 236 237 237 235 231 228 227 230 234 238 242 245 244 242 239 237 238 239 241 241 240 241 242 242 243 245 243 242 244 247 249 251
255 254 246 232 229 229 223 227 240 245 243 242 238 236 233 230 230 232 234 237 240 243 244 242 238 237 238 240 242 243 242 241 241 240 241 241 240 241 245 248 252 254
258 256 244 230 229 225 217 228 247 249 249 250 246 242 235 227 226 227 229 235 239 242 244 242 237 236 238 239 242 243 243 241 238 236 236 238 240 243 248 252 256 258
258 250 233 224 227 222 217 233 248 247 251 255 250 243 232 223 224 225 227 234 239 240 240 238 235 235 237 238 240 241 241 240 238 237 238 242 246 248 252 256 258 259
249 234 220 219 223 221 223 238 247 248 253 249 238 234 230 224 223 225 228 235 238 236 234 234 234 236 238 240 241 242 242 241 241 241 243 248 250 251 253 257 259 260
232 218 216 219 222 222 228 239 245 248 250 239 226 222 223 220 219 223 229 234 234 232 231 232 234 237 240 243 245 246 246 245 245 245 247 250 252 252 254 258 260 260
230 220 219 219 221 225 229 237 245 247 241 229 218 210 211 214 218 224 229 230 230 230 231 232 235 239 244 247 249 249 249 248 249 249 249 251 252 254 257 259 257 255
233 229 225 220 219 225 231 237 241 234 222 212 206 205 212 219 222 225 227 227 229 231 233 235 238 243 247 250 250 250 250 250 252 252 253 253 254 257 261 260 253 248
233 231 228 224 224 228 235 238 231 221 214 208 204 208 218 226 229 230 231 231 232 234 236 238 240 245 248 249 250 251 252 253 254 255 256 256 256 259 260 257 250 244
231 233 232 231 232 234 236 234 226 222 221 217 213 216 225 234 236 234 233 233 235 237 240 241 244 246 247 249 252 255 257 256 255 255 256 256 257 258 258 255 250 246
216 222 228 231 233 234 234 231 226 223 220 217 218 224 232 237 237 236 236 238 240 241 242 244 245 246 248 251 254 257 257 255 253 252 252 254 256 256 254 252 251 250
214 213 219 227 231 231 230 227 223 221 218 215 219 226 231 235 239 242 242 240 241 243 245 246 247 248 250 252 253 253 252 250 250 251 251 252 254 254 252 251 251 252